TimeCDT,TemperatureF,Dew PointF,Humidity,Sea Level PressureIn,VisibilityMPH,Wind Direction,Wind SpeedMPH,Gust SpeedMPH,PrecipitationIn,Events,Conditions,WindDirDegrees,DateUTC
12:15 AM,69.8,59.0,68,29.84,10.0,SSE,11.5,-,N/A,,Clear,160,2013-05-18 05:15:00
12:35 AM,69.8,59.0,68,29.85,10.0,SSE,11.5,18.4,N/A,,Clear,160,2013-05-18 05:35:00
12:55 AM,69.8,59.0,68,29.87,10.0,South,10.4,-,N/A,,Clear,180,2013-05-18 05:55:00
1:15 AM,68.0,59.0,73,29.87,10.0,South,8.1,-,N/A,,Clear,180,2013-05-18 06:15:00
1:35 AM,66.2,59.0,78,29.88,10.0,South,4.6,-,N/A,,Clear,190,2013-05-18 06:35:00
1:55 AM,66.2,59.0,78,29.87,10.0,South,6.9,-,N/A,,Clear,170,2013-05-18 06:55:00
2:15 AM,66.2,59.0,78,29.87,10.0,South,5.8,-,N/A,,Clear,190,2013-05-18 07:15:00
2:35 AM,64.4,57.2,77,29.87,10.0,SSW,5.8,-,N/A,,Clear,200,2013-05-18 07:35:00
2:55 AM,64.4,57.2,77,29.87,10.0,South,5.8,-,N/A,,Clear,190,2013-05-18 07:55:00
3:15 AM,64.4,57.2,77,29.88,10.0,South,6.9,-,N/A,,Clear,180,2013-05-18 08:15:00
3:35 AM,64.4,57.2,77,29.88,10.0,South,5.8,-,N/A,,Clear,170,2013-05-18 08:35:00
3:55 AM,64.4,57.2,77,29.88,10.0,South,6.9,-,N/A,,Clear,180,2013-05-18 08:55:00
4:15 AM,64.4,57.2,77,29.88,10.0,South,4.6,-,N/A,,Clear,170,2013-05-18 09:15:00
4:35 AM,64.4,57.2,77,29.87,10.0,South,6.9,-,N/A,,Clear,170,2013-05-18 09:35:00
4:55 AM,64.4,57.2,77,29.87,10.0,South,6.9,-,N/A,,Clear,180,2013-05-18 09:55:00
5:15 AM,62.6,57.2,82,29.87,10.0,South,5.8,-,N/A,,Clear,170,2013-05-18 10:15:00
5:35 AM,62.6,57.2,82,29.87,10.0,South,3.5,-,N/A,,Clear,170,2013-05-18 10:35:00
5:55 AM,62.6,57.2,82,29.87,10.0,SSW,3.5,-,N/A,,Clear,200,2013-05-18 10:55:00
6:15 AM,62.6,57.2,82,29.88,10.0,Calm,Calm,-,N/A,,Clear,0,2013-05-18 11:15:00
6:35 AM,62.6,57.2,82,29.89,10.0,Calm,Calm,-,N/A,,Clear,0,2013-05-18 11:35:00
6:55 AM,62.6,57.2,82,29.90,10.0,Calm,Calm,-,N/A,,Clear,0,2013-05-18 11:55:00
7:15 AM,62.6,57.2,82,29.91,10.0,Calm,Calm,-,N/A,,Clear,0,2013-05-18 12:15:00
7:35 AM,64.4,59.0,83,29.91,10.0,Calm,Calm,-,N/A,,Clear,0,2013-05-18 12:35:00
7:55 AM,64.4,59.0,83,29.91,10.0,SE,3.5,-,N/A,,Clear,140,2013-05-18 12:55:00
8:15 AM,66.2,59.0,78,29.91,10.0,SE,3.5,-,N/A,,Clear,140,2013-05-18 13:15:00
8:35 AM,66.2,59.0,78,29.91,10.0,South,4.6,-,N/A,,Clear,170,2013-05-18 13:35:00
8:55 AM,68.0,60.8,78,29.91,10.0,South,5.8,-,N/A,,Clear,190,2013-05-18 13:55:00
9:15 AM,69.8,60.8,73,29.91,10.0,SSW,6.9,-,N/A,,Clear,210,2013-05-18 14:15:00
9:35 AM,69.8,60.8,73,29.91,10.0,SSW,6.9,-,N/A,,Clear,200,2013-05-18 14:35:00
9:55 AM,71.6,60.8,69,29.91,10.0,South,8.1,-,N/A,,Scattered Clouds,170,2013-05-18 14:55:00
10:15 AM,71.6,60.8,69,29.90,10.0,South,8.1,-,N/A,,Mostly Cloudy,180,2013-05-18 15:15:00
10:35 AM,73.4,60.8,65,29.89,10.0,South,8.1,-,N/A,,Scattered Clouds,170,2013-05-18 15:35:00
10:55 AM,75.2,60.8,61,29.88,10.0,South,8.1,-,N/A,,Clear,180,2013-05-18 15:55:00
11:15 AM,75.2,60.8,61,29.88,10.0,South,6.9,-,N/A,,Clear,170,2013-05-18 16:15:00
11:35 AM,77.0,62.6,61,29.87,10.0,South,8.1,-,N/A,,Clear,170,2013-05-18 16:35:00
11:55 AM,77.0,60.8,57,29.87,10.0,SSE,5.8,-,N/A,,Scattered Clouds,160,2013-05-18 16:55:00
12:15 PM,78.8,59.0,51,29.86,10.0,SSE,8.1,-,N/A,,Scattered Clouds,160,2013-05-18 17:15:00
12:35 PM,78.8,60.8,54,29.85,10.0,SSE,9.2,16.1,N/A,,Scattered Clouds,160,2013-05-18 17:35:00
12:55 PM,78.8,59.0,51,29.84,10.0,SSE,12.7,16.1,N/A,,Scattered Clouds,160,2013-05-18 17:55:00
1:15 PM,78.8,57.2,47,29.83,10.0,SE,10.4,16.1,N/A,,Scattered Clouds,140,2013-05-18 18:15:00
1:35 PM,78.8,57.2,47,29.82,10.0,SE,12.7,23.0,N/A,,Mostly Cloudy,140,2013-05-18 18:35:00
2:15 PM,80.6,57.2,45,29.80,10.0,SE,11.5,19.6,N/A,,Scattered Clouds,140,2013-05-18 19:15:00
2:35 PM,80.6,57.2,45,29.80,10.0,SSE,13.8,19.6,N/A,,Scattered Clouds,150,2013-05-18 19:35:00
2:55 PM,80.6,57.2,45,29.80,10.0,SSE,12.7,21.9,N/A,,Scattered Clouds,160,2013-05-18 19:55:00
3:15 PM,82.4,57.2,42,29.80,10.0,SSE,15.0,20.7,N/A,,Scattered Clouds,150,2013-05-18 20:15:00
3:35 PM,80.6,57.2,45,29.79,10.0,SSE,13.8,20.7,N/A,,Mostly Cloudy,160,2013-05-18 20:35:00
3:55 PM,80.6,57.2,45,29.79,10.0,South,13.8,21.9,N/A,,Overcast,180,2013-05-18 20:55:00
4:15 PM,80.6,57.2,45,29.80,10.0,South,10.4,-,N/A,,Overcast,170,2013-05-18 21:15:00
4:35 PM,80.6,57.2,45,29.79,10.0,South,11.5,-,N/A,,Overcast,180,2013-05-18 21:35:00
4:55 PM,80.6,57.2,45,29.79,10.0,South,10.4,-,N/A,,Overcast,180,2013-05-18 21:55:00
5:15 PM,82.4,57.2,42,29.78,10.0,SSE,11.5,16.1,N/A,,Mostly Cloudy,150,2013-05-18 22:15:00
5:35 PM,82.4,57.2,42,29.77,10.0,South,11.5,-,N/A,,Scattered Clouds,170,2013-05-18 22:35:00
5:55 PM,84.2,57.2,40,29.76,10.0,SSE,12.7,-,N/A,,Scattered Clouds,150,2013-05-18 22:55:00
6:15 PM,84.2,55.4,37,29.75,10.0,South,13.8,19.6,N/A,,Scattered Clouds,170,2013-05-18 23:15:00
6:35 PM,82.4,55.4,39,29.74,10.0,South,11.5,19.6,N/A,,Clear,170,2013-05-18 23:35:00
6:55 PM,82.4,57.2,42,29.74,10.0,SSE,10.4,-,N/A,,Scattered Clouds,160,2013-05-18 23:55:00
7:15 PM,82.4,57.2,42,29.72,10.0,SSE,12.7,17.3,N/A,,Clear,150,2013-05-19 00:15:00
7:35 PM,82.4,57.2,42,29.71,10.0,SE,10.4,-,N/A,,Clear,140,2013-05-19 00:35:00
7:55 PM,80.6,57.2,45,29.72,10.0,SSE,11.5,19.6,N/A,,Clear,150,2013-05-19 00:55:00
8:15 PM,80.6,59.0,48,29.73,10.0,SSE,9.2,-,N/A,,Clear,160,2013-05-19 01:15:00
8:35 PM,78.8,59.0,51,29.74,10.0,SSE,8.1,-,N/A,,Clear,160,2013-05-19 01:35:00
8:55 PM,78.8,60.8,54,29.72,10.0,SE,5.8,-,N/A,,Clear,140,2013-05-19 01:55:00
9:15 PM,77.0,60.8,57,29.71,10.0,SE,4.6,-,N/A,,Clear,130,2013-05-19 02:15:00
9:35 PM,75.2,60.8,61,29.71,10.0,SE,6.9,-,N/A,,Clear,130,2013-05-19 02:35:00
9:55 PM,75.2,60.8,61,29.71,10.0,SE,6.9,-,N/A,,Scattered Clouds,130,2013-05-19 02:55:00
10:15 PM,73.4,60.8,65,29.71,10.0,SE,5.8,-,N/A,,Scattered Clouds,140,2013-05-19 03:15:00
10:35 PM,75.2,60.8,61,29.71,10.0,SSE,9.2,-,N/A,,Mostly Cloudy,150,2013-05-19 03:35:00
11:15 PM,75.2,60.8,61,29.71,10.0,SSE,11.5,17.3,N/A,,Overcast,160,2013-05-19 04:15:00
11:35 PM,75.2,60.8,61,29.71,10.0,SSE,11.5,-,N/A,,Overcast,150,2013-05-19 04:35:00
11:55 PM,75.2,60.8,61,29.72,10.0,SSE,9.2,-,N/A,,Overcast,150,2013-05-19 04:55:00